Previsão horária em Allo

Hoje, 22 Janeiro, Sexta-feira

Tempo Temperatura Precipitação Vento Pressão Humidade
00:00 +6°C° 0 mm 2 m/s 708 mmHg 80%
01:00 +7°C° 0 mm 2 m/s 707 mmHg 80%
02:00 +7°C° 0 mm 3 m/s 706 mmHg 80%
03:00 +6°C° 0 mm 4 m/s 705 mmHg 79%
04:00 +6°C° 0.9 mm 4 m/s 705 mmHg 81%
05:00 +6°C° 0.9 mm 4 m/s 704 mmHg 83%
06:00 +6°C° 0.9 mm 4 m/s 704 mmHg 85%
07:00 +6°C° 0.2 mm 5 m/s 705 mmHg 84%
08:00 +5°C° 0.2 mm 6 m/s 706 mmHg 82%
09:00 +4°C° 0.2 mm 7 m/s 706 mmHg 80%
10:00 +5°C° 0.1 mm 7 m/s 707 mmHg 76%
11:00 +5°C° 0.1 mm 8 m/s 708 mmHg 73%
12:00 +5°C° 0.1 mm 8 m/s 709 mmHg 69%
13:00 +5°C° 0.1 mm 7 m/s 709 mmHg 69%
14:00 +5°C° 0.1 mm 7 m/s 710 mmHg 68%
15:00 +5°C° 0.1 mm 6 m/s 710 mmHg 68%
16:00 +5°C° 0 mm 5 m/s 710 mmHg 72%
17:00 +4°C° 0 mm 3 m/s 711 mmHg 76%
18:00 +4°C° 0 mm 2 m/s 711 mmHg 81%
19:00 +4°C° 0 mm 2 m/s 711 mmHg 81%
20:00 +4°C° 0 mm 2 m/s 712 mmHg 81%
21:00 +4°C° 0 mm 1 m/s 712 mmHg 82%
22:00 +3°C° 0 mm 2 m/s 712 mmHg 82%
23:00 +3°C° 0 mm 2 m/s 712 mmHg 83%

Amanhã, 23 Janeiro, Sábado

Tempo Temperatura Precipitação Vento Pressão Humidade
00:00 +3°C° 0 mm 2 m/s 712 mmHg 83%
01:00 +2°C° 0 mm 3 m/s 711 mmHg 83%
02:00 +2°C° 0 mm 3 m/s 711 mmHg 82%
03:00 +2°C° 0 mm 3 m/s 710 mmHg 81%
04:00 +2°C° 0.1 mm 3 m/s 710 mmHg 82%
05:00 +3°C° 0.1 mm 3 m/s 710 mmHg 82%
06:00 +3°C° 0.1 mm 3 m/s 710 mmHg 83%
07:00 +3°C° 0.4 mm 4 m/s 710 mmHg 83%
08:00 +3°C° 0.4 mm 5 m/s 711 mmHg 83%
09:00 +3°C° 0.4 mm 6 m/s 711 mmHg 83%
10:00 +4°C° 0 mm 6 m/s 711 mmHg 76%
11:00 +5°C° 0 mm 6 m/s 712 mmHg 69%
12:00 +6°C° 0 mm 7 m/s 712 mmHg 62%
13:00 +7°C° 0.2 mm 5 m/s 711 mmHg 67%
14:00 +6°C° 0.2 mm 4 m/s 710 mmHg 73%
15:00 +7°C° 0.2 mm 2 m/s 710 mmHg 78%
16:00 +6°C° 1.6 mm 2 m/s 709 mmHg 84%
17:00 +5°C° 1.6 mm 2 m/s 708 mmHg 90%
18:00 +5°C° 1.6 mm 2 m/s 707 mmHg 96%
19:00 +5°C° 2.1 mm 2 m/s 707 mmHg 96%
20:00 +5°C° 2.1 mm 2 m/s 706 mmHg 96%
21:00 +4°C° 2.1 mm 2 m/s 706 mmHg 96%
22:00 +6°C° 0.4 mm 1 m/s 706 mmHg 94%
23:00 +6°C° 0.4 mm 1 m/s 706 mmHg 93%

Depois de amanhã, 24 Janeiro, Domingo

Tempo Temperatura Precipitação Vento Pressão Humidade
00:00 +6°C° 0.4 mm 1 m/s 706 mmHg 92%
01:00 +5°C° 0.7 mm 2 m/s 706 mmHg 91%
02:00 +4°C° 0.7 mm 3 m/s 707 mmHg 90%
03:00 +4°C° 0.7 mm 4 m/s 708 mmHg 90%
04:00 +4°C° 0.3 mm 4 m/s 709 mmHg 90%
05:00 +3°C° 0.3 mm 4 m/s 710 mmHg 90%
06:00 +3°C° 0.3 mm 4 m/s 710 mmHg 91%
07:00 +3°C° 0.1 mm 4 m/s 711 mmHg 89%
08:00 +3°C° 0.1 mm 3 m/s 712 mmHg 88%
09:00 +3°C° 0.1 mm 3 m/s 712 mmHg 86%
10:00 +4°C° 0.1 mm 4 m/s 713 mmHg 81%
11:00 +5°C° 0.1 mm 4 m/s 713 mmHg 77%
12:00 +6°C° 0.1 mm 5 m/s 713 mmHg 72%
13:00 +7°C° 0.1 mm 6 m/s 713 mmHg 69%
14:00 +7°C° 0.1 mm 6 m/s 713 mmHg 65%
15:00 +8°C° 0.1 mm 7 m/s 713 mmHg 61%
16:00 +6°C° 0.2 mm 5 m/s 714 mmHg 69%
17:00 +5°C° 0.2 mm 4 m/s 714 mmHg 76%
18:00 +4°C° 0.2 mm 3 m/s 714 mmHg 84%
19:00 +4°C° 0.3 mm 3 m/s 715 mmHg 86%
20:00 +5°C° 0.3 mm 2 m/s 715 mmHg 88%
21:00 +4°C° 0.3 mm 2 m/s 715 mmHg 90%
22:00 +4°C° 0.1 mm 2 m/s 716 mmHg 90%
23:00 +4°C° 0.1 mm 2 m/s 716 mmHg 90%

25 Janeiro, Segunda-feira

Tempo Temperatura Precipitação Vento Pressão Humidade
00:00 +5°C° 0.1 mm 2 m/s 716 mmHg 91%
01:00 +5°C° 0.1 mm 2 m/s 716 mmHg 91%
02:00 +4°C° 0.1 mm 2 m/s 716 mmHg 91%
03:00 +4°C° 0.1 mm 2 m/s 717 mmHg 91%
04:00 +4°C° 0 mm 2 m/s 717 mmHg 91%
05:00 +4°C° 0 mm 2 m/s 717 mmHg 91%
06:00 +5°C° 0 mm 1 m/s 717 mmHg 91%
07:00 +5°C° 0 mm 1 m/s 717 mmHg 89%
08:00 +5°C° 0 mm 1 m/s 718 mmHg 87%
09:00 +6°C° 0 mm 1 m/s 718 mmHg 86%
10:00 +7°C° 0 mm 1 m/s 719 mmHg 80%
11:00 +8°C° 0 mm 1 m/s 719 mmHg 74%
12:00 +8°C° 0 mm 2 m/s 719 mmHg 68%
13:00 +8°C° 0 mm 2 m/s 719 mmHg 67%
14:00 +8°C° 0 mm 2 m/s 719 mmHg 66%
15:00 +9°C° 0 mm 1 m/s 718 mmHg 64%
16:00 +8°C° 0 mm 1 m/s 719 mmHg 69%
17:00 +6°C° 0 mm 0 m/s 719 mmHg 74%
18:00 +5°C° 0 mm 0 m/s 719 mmHg 78%
19:00 +5°C° 0 mm 0 m/s 719 mmHg 80%
20:00 +4°C° 0 mm 0 m/s 720 mmHg 82%
21:00 +5°C° 0 mm 1 m/s 720 mmHg 84%
22:00 +5°C° 0 mm 1 m/s 720 mmHg 84%
23:00 +3°C° 0 mm 0 m/s 720 mmHg 85%

26 Janeiro, Terça-feira

Tempo Temperatura Precipitação Vento Pressão Humidade
00:00 +3°C° 0 mm 0 m/s 720 mmHg 85%
01:00 +3°C° 0 mm 0 m/s 720 mmHg 85%
02:00 +3°C° 0 mm 0 m/s 720 mmHg 86%
03:00 +3°C° 0 mm 0 m/s 720 mmHg 86%
04:00 +3°C° 0 mm 0 m/s 719 mmHg 86%
05:00 +3°C° 0 mm 0 m/s 719 mmHg 86%
06:00 +3°C° 0 mm 0 m/s 719 mmHg 87%
07:00 +4°C° 0.1 mm 0 m/s 719 mmHg 86%
08:00 +5°C° 0.1 mm 1 m/s 719 mmHg 85%
09:00 +6°C° 0.1 mm 1 m/s 720 mmHg 85%
10:00 +6°C° 0.9 mm 1 m/s 719 mmHg 88%
11:00 +6°C° 0.9 mm 1 m/s 719 mmHg 91%
12:00 +6°C° 0.9 mm 1 m/s 719 mmHg 94%
13:00 +6°C° 0.7 mm 1 m/s 719 mmHg 94%
14:00 +6°C° 0.7 mm 1 m/s 719 mmHg 95%
15:00 +5°C° 0.7 mm 0 m/s 719 mmHg 96%
16:00 +5°C° 0.2 mm 0 m/s 719 mmHg 95%
17:00 +5°C° 0.2 mm 0 m/s 720 mmHg 95%
18:00 +6°C° 0.2 mm 0 m/s 720 mmHg 95%
19:00 +7°C° 0 mm 1 m/s 721 mmHg 94%
20:00 +7°C° 0 mm 1 m/s 721 mmHg 94%
21:00 +8°C° 0 mm 1 m/s 722 mmHg 93%
22:00 +8°C° 0 mm 1 m/s 722 mmHg 93%
23:00 +8°C° 0 mm 1 m/s 722 mmHg 93%

27 Janeiro, Quarta-feira

Tempo Temperatura Precipitação Vento Pressão Humidade
00:00 +8°C° 0 mm 1 m/s 723 mmHg 92%
01:00 +8°C° 0 mm 1 m/s 723 mmHg 92%
02:00 +8°C° 0 mm 1 m/s 723 mmHg 93%
03:00 +8°C° 0 mm 1 m/s 723 mmHg 93%
04:00 +8°C° 0 mm 1 m/s 723 mmHg 92%
05:00 +8°C° 0 mm 1 m/s 723 mmHg 92%
06:00 +8°C° 0 mm 1 m/s 723 mmHg 92%
07:00 +8°C° 0 mm 1 m/s 723 mmHg 91%
08:00 +9°C° 0 mm 1 m/s 723 mmHg 90%
09:00 +9°C° 0 mm 1 m/s 723 mmHg 89%
10:00 +11°C° 0 mm 1 m/s 723 mmHg 84%
11:00 +12°C° 0 mm 2 m/s 723 mmHg 80%
12:00 +13°C° 0 mm 2 m/s 723 mmHg 76%
13:00 +14°C° 0 mm 2 m/s 723 mmHg 74%
14:00 +14°C° 0 mm 2 m/s 723 mmHg 72%
15:00 +15°C° 0 mm 2 m/s 722 mmHg 70%
16:00 +13°C° 0 mm 2 m/s 722 mmHg 74%
17:00 +12°C° 0 mm 1 m/s 722 mmHg 78%
18:00 +11°C° 0 mm 1 m/s 722 mmHg 83%
19:00 +11°C° 0 mm 1 m/s 722 mmHg 83%
20:00 +10°C° 0 mm 1 m/s 722 mmHg 83%
21:00 +10°C° 0 mm 1 m/s 722 mmHg 82%
22:00 +10°C° 0 mm 1 m/s 722 mmHg 83%
23:00 +10°C° 0 mm 1 m/s 722 mmHg 85%
Mostrar mais

Necessitamos do seu Consentimento

A Meteoprog e os seus Fornecedores de Serviços podem armazenar e aceder a dados pessoais como cookies, identificadores do dispositivo ou outras tecnologias semelhantes existentes no seu dispositivo e processar estes dados para personalizar conteúdos e anúncios, assim como funcionalidades nas redes sociais e análise de tráfego.

  • Armazenar e/ou aceder a informações no seu dispositivo

    Os cookies, identificadores do dispositivo ou outras informações podem ser armazenados ou acedidos no seu dispositivo, para os fins acima indicados.

  • Anúncios e conteúdos personalizados, medição de anúncios e conteúdos, dados sobre o público-alvo e desenvolvimento de produtos

    Os anúncios e os conteúdos podem ser personalizados com base num perfil. Podem ser adicionados dados adicionais para uma maior personalização dos anúncios e dos conteúdos. A eficácia dos anúncios e dos conteúdos pode ser medida. Podem ser obtidas informações sobre o público que visualizou os anúncios e os conteúdos. Estes dados podem ser usados para desenvolver ou melhorar sistemas, softwares ou a experiência do utilizador.

Ao clicar em "Eu concordo”, permitirá o uso de cookies, identificadores do dispositivo e web beacons mencionados ou outras tecnologias semelhantes. As configurações do navegador do seu dispositivo podem ser alteradas.

Para certos fins, podem ser invocados interesses legítimos ao invés de consentimento. Pode ler mais informação sobre este assunto na nossa Política de Privacidade e Cookies.